General Aviation Weather

Text Reports

Enter one or more of the following location identifiers separated by a space:

Zip Code, Four-Character ICAO or Three-Character IATA airport codes.

METAR - Aviation Routine Weather Report
KILE - Killeen, Texas
Updated at 6:56 AM GMT on February 14, 2016 (12:56 AM CST):
METAR KILE 140656Z AUTO 16012KT 10SM CLR 14/12 A3009 RMK AO2 SLP204 T01390117
TAF - Terminal Area Forecast
KILE - Killeen, Texas
Updated at 6:56 AM GMT on February 14, 2016 (12:56 AM CST):
No TAF is currently available for this location.
Decoded:
No decoded TAF is available.
PIREP - Pilot Weather Report
KILE - Killeen, Texas
Updated at 6:56 AM GMT on February 14, 2016 (12:56 AM CST):
No PIREP is currently available for this location.
AIRMET - Airmens Meteorological Information
KILE - Killeen, Texas
Updated at 6:56 AM GMT on February 14, 2016 (12:56 AM CST):
No AIRMET is currently available for this location.
SIGMET - Significant Meteorological Information
KILE - Killeen, Texas
Updated at 6:56 AM GMT on February 14, 2016 (12:56 AM CST):
No SIGMET is currently available for this location.
NOTAM - Notice to Airmen
KILE - Killeen, Texas
Updated at 6:56 AM GMT on February 14, 2016 (12:56 AM CST):
No NOTAM is currently available for this location.
Forecast Area
KILE - Killeen, Texas
Updated at 6:56 AM GMT on February 14, 2016 (12:56 AM CST):
No NOTAM is currently available for this location.
Aviation Weather Maps